• In Hungary
  • List of Countries
  • For 7 days
  • Water Temperature
  • Satellite Maps
  • Weather Map
  • News
  • Weather Widgets
  • user-avatar
    Login

    Hourly Weather Kegalle

    Today, 18 January, Thursday

    Time Temperature Precipitation Wind Pressure Humidity
    00:00 +20°C° 0 mm 2 mps 739 mmHg 81%
    01:00 +20°C° 0 mm 2 mps 739 mmHg 82%
    02:00 +20°C° 0 mm 2 mps 738 mmHg 83%
    03:00 +20°C° 0 mm 2 mps 738 mmHg 82%
    04:00 +19°C° 0 mm 2 mps 738 mmHg 81%
    05:00 +20°C° 0 mm 2 mps 738 mmHg 80%
    06:00 +21°C° 0 mm 2 mps 739 mmHg 75%
    07:00 +24°C° 0 mm 2 mps 739 mmHg 69%
    08:00 +25°C° 0 mm 2 mps 740 mmHg 64%
    09:00 +27°C° 0 mm 2 mps 740 mmHg 57%
    10:00 +29°C° 0 mm 2 mps 740 mmHg 50%
    11:00 +31°C° 0 mm 3 mps 740 mmHg 43%
    12:00 +33°C° 0 mm 3 mps 739 mmHg 42%
    13:00 +33°C° 0 mm 3 mps 739 mmHg 42%
    14:00 +33°C° 0 mm 3 mps 738 mmHg 41%
    15:00 +31°C° 0 mm 3 mps 738 mmHg 48%
    16:00 +30°C° 0 mm 2 mps 738 mmHg 54%
    17:00 +28°C° 0 mm 2 mps 738 mmHg 60%
    18:00 +27°C° 0 mm 2 mps 738 mmHg 66%
    19:00 +25°C° 0 mm 2 mps 739 mmHg 72%
    20:00 +24°C° 0 mm 2 mps 739 mmHg 78%
    21:00 +23°C° 0 mm 2 mps 739 mmHg 81%
    22:00 +23°C° 0 mm 2 mps 739 mmHg 84%
    23:00 +21°C° 0 mm 2 mps 740 mmHg 87%

    Tomorrow, 19 January, Friday

    Time Temperature Precipitation Wind Pressure Humidity
    00:00 +21°C° 0 mm 2 mps 739 mmHg 88%
    01:00 +22°C° 0 mm 1 mps 739 mmHg 90%
    02:00 +21°C° 0 mm 1 mps 739 mmHg 91%
    03:00 +21°C° 0 mm 1 mps 739 mmHg 91%
    04:00 +21°C° 0 mm 1 mps 739 mmHg 92%
    05:00 +21°C° 0 mm 1 mps 739 mmHg 92%
    06:00 +23°C° 0 mm 2 mps 739 mmHg 85%
    07:00 +24°C° 0 mm 2 mps 740 mmHg 78%
    08:00 +26°C° 0 mm 2 mps 740 mmHg 72%
    09:00 +28°C° 0 mm 2 mps 740 mmHg 64%
    10:00 +30°C° 0 mm 2 mps 740 mmHg 57%
    11:00 +31°C° 0 mm 2 mps 740 mmHg 49%
    12:00 +32°C° 0 mm 2 mps 740 mmHg 49%
    13:00 +33°C° 0 mm 3 mps 739 mmHg 48%
    14:00 +33°C° 0 mm 3 mps 738 mmHg 48%
    15:00 +31°C° 0 mm 3 mps 738 mmHg 54%
    16:00 +30°C° 0 mm 2 mps 738 mmHg 60%
    17:00 +29°C° 0 mm 2 mps 738 mmHg 66%
    18:00 +27°C° 0 mm 2 mps 739 mmHg 71%
    19:00 +26°C° 0 mm 2 mps 739 mmHg 76%
    20:00 +25°C° 0 mm 2 mps 740 mmHg 80%
    21:00 +24°C° 0 mm 2 mps 740 mmHg 82%
    22:00 +24°C° 0 mm 2 mps 740 mmHg 85%
    23:00 +23°C° 0 mm 2 mps 740 mmHg 87%

    Day after tomorrow, 20 January, Saturday

    Time Temperature Precipitation Wind Pressure Humidity
    00:00 +23°C° 0 mm 2 mps 739 mmHg 88%
    01:00 +21°C° 0 mm 2 mps 739 mmHg 89%
    02:00 +21°C° 0 mm 2 mps 738 mmHg 91%
    03:00 +21°C° 0 mm 2 mps 738 mmHg 91%
    04:00 +21°C° 0 mm 2 mps 738 mmHg 92%
    05:00 +22°C° 0 mm 1 mps 738 mmHg 93%
    06:00 +23°C° 0 mm 2 mps 739 mmHg 86%
    07:00 +25°C° 0 mm 2 mps 739 mmHg 80%
    08:00 +26°C° 0 mm 2 mps 740 mmHg 74%
    09:00 +28°C° 0 mm 2 mps 740 mmHg 66%
    10:00 +29°C° 0 mm 2 mps 740 mmHg 59%
    11:00 +31°C° 0 mm 2 mps 740 mmHg 51%
    12:00 +32°C° 0 mm 2 mps 739 mmHg 51%
    13:00 +32°C° 0 mm 2 mps 738 mmHg 50%
    14:00 +33°C° 0 mm 3 mps 737 mmHg 49%
    15:00 +31°C° 0 mm 2 mps 737 mmHg 55%
    16:00 +29°C° 0 mm 2 mps 737 mmHg 61%
    17:00 +28°C° 0 mm 2 mps 737 mmHg 67%
    18:00 +27°C° 0 mm 2 mps 738 mmHg 72%
    19:00 +26°C° 0 mm 2 mps 739 mmHg 76%
    20:00 +25°C° 0 mm 2 mps 739 mmHg 80%
    21:00 +24°C° 0 mm 2 mps 739 mmHg 83%
    22:00 +24°C° 0 mm 2 mps 739 mmHg 85%
    23:00 +23°C° 0 mm 2 mps 739 mmHg 87%

    21 January, Sunday

    Time Temperature Precipitation Wind Pressure Humidity
    00:00 +23°C° 0 mm 2 mps 739 mmHg 88%
    01:00 +23°C° 0 mm 1 mps 738 mmHg 89%
    02:00 +22°C° 0 mm 1 mps 737 mmHg 90%
    03:00 +22°C° 0 mm 1 mps 738 mmHg 92%
    04:00 +22°C° 0 mm 1 mps 738 mmHg 93%
    05:00 +22°C° 0 mm 1 mps 738 mmHg 94%
    06:00 +23°C° 0 mm 1 mps 738 mmHg 87%
    07:00 +25°C° 0 mm 1 mps 739 mmHg 81%
    08:00 +26°C° 0 mm 1 mps 740 mmHg 74%
    09:00 +28°C° 0 mm 2 mps 740 mmHg 66%
    10:00 +30°C° 0 mm 2 mps 739 mmHg 58%
    11:00 +32°C° 0 mm 2 mps 739 mmHg 50%
    12:00 +32°C° 0 mm 2 mps 739 mmHg 49%
    13:00 +32°C° 0 mm 2 mps 738 mmHg 48%
    14:00 +33°C° 0 mm 3 mps 737 mmHg 47%
    15:00 +31°C° 0 mm 2 mps 737 mmHg 54%
    16:00 +30°C° 0 mm 2 mps 737 mmHg 61%
    17:00 +28°C° 0 mm 2 mps 737 mmHg 69%
    18:00 +27°C° 0 mm 2 mps 738 mmHg 73%
    19:00 +26°C° 0 mm 2 mps 738 mmHg 77%
    20:00 +25°C° 0 mm 2 mps 739 mmHg 82%
    21:00 +25°C° 0 mm 2 mps 739 mmHg 84%
    22:00 +24°C° 0 mm 1 mps 739 mmHg 86%
    23:00 +24°C° 0 mm 1 mps 739 mmHg 88%

    22 January, Monday

    Time Temperature Precipitation Wind Pressure Humidity
    00:00 +23°C° 0 mm 1 mps 738 mmHg 89%
    01:00 +23°C° 0 mm 1 mps 737 mmHg 91%
    02:00 +22°C° 0 mm 1 mps 737 mmHg 92%
    03:00 +22°C° 0 mm 1 mps 737 mmHg 93%
    04:00 +22°C° 0 mm 1 mps 737 mmHg 94%
    05:00 +22°C° 0 mm 1 mps 737 mmHg 94%
    06:00 +23°C° 0 mm 1 mps 738 mmHg 89%
    07:00 +24°C° 0 mm 1 mps 738 mmHg 83%
    08:00 +26°C° 0 mm 1 mps 739 mmHg 78%
    09:00 +27°C° 0 mm 1 mps 739 mmHg 72%
    10:00 +29°C° 0 mm 1 mps 739 mmHg 65%
    11:00 +30°C° 0 mm 1 mps 739 mmHg 59%
    12:00 +30°C° 0 mm 1 mps 738 mmHg 59%
    13:00 +30°C° 0 mm 1 mps 737 mmHg 59%
    14:00 +30°C° 0 mm 1 mps 736 mmHg 59%
    15:00 +29°C° 0.1 mm 1 mps 736 mmHg 66%
    16:00 +28°C° 0.1 mm 1 mps 737 mmHg 73%
    17:00 +27°C° 0.1 mm 1 mps 737 mmHg 80%
    18:00 +26°C° 0 mm 1 mps 737 mmHg 84%
    19:00 +26°C° 0 mm 1 mps 738 mmHg 87%
    20:00 +25°C° 0 mm 1 mps 739 mmHg 90%
    21:00 +25°C° 0 mm 1 mps 739 mmHg 91%
    22:00 +25°C° 0 mm 1 mps 738 mmHg 92%
    23:00 +24°C° 0 mm 1 mps 738 mmHg 93%

    23 January, Tuesday

    Time Temperature Precipitation Wind Pressure Humidity
    00:00 +24°C° 0 mm 1 mps 738 mmHg 94%
    01:00 +24°C° 0 mm 1 mps 737 mmHg 94%
    02:00 +24°C° 0 mm 1 mps 737 mmHg 95%
    03:00 +24°C° 0 mm 1 mps 737 mmHg 95%
    04:00 +24°C° 0 mm 1 mps 737 mmHg 95%
    05:00 +23°C° 0 mm 1 mps 737 mmHg 95%
    06:00 +24°C° 0 mm 1 mps 738 mmHg 91%
    07:00 +25°C° 0 mm 1 mps 738 mmHg 87%
    08:00 +26°C° 0 mm 1 mps 739 mmHg 82%
    09:00 +28°C° 0 mm 1 mps 739 mmHg 74%
    10:00 +30°C° 0 mm 1 mps 739 mmHg 65%
    11:00 +32°C° 0 mm 1 mps 739 mmHg 57%
    12:00 +32°C° 0 mm 1 mps 738 mmHg 55%
    13:00 +32°C° 0 mm 2 mps 737 mmHg 53%
    14:00 +34°C° 0 mm 2 mps 736 mmHg 51%
    15:00 +31°C° 0.1 mm 2 mps 736 mmHg 59%
    16:00 +30°C° 0.1 mm 2 mps 737 mmHg 66%
    17:00 +28°C° 0.1 mm 2 mps 737 mmHg 74%
    18:00 +27°C° 0 mm 2 mps 737 mmHg 79%
    19:00 +26°C° 0 mm 1 mps 738 mmHg 85%
    20:00 +25°C° 0 mm 1 mps 738 mmHg 91%
    21:00 +25°C° 0 mm 1 mps 738 mmHg 91%
    22:00 +25°C° 0 mm 1 mps 738 mmHg 92%
    23:00 +24°C° 0 mm 1 mps 738 mmHg 93%
    Show more